WIA59M TFFJ-TNCS

Flight info

Callsign WIA59M
Flight time 0h 13m
Altitude 8000
Route CS200/N0159F070 DCT CS100
Aircraft DHC6/L-SDFGR/C

Departure

Time 2026-05-05 10:47
Airport St. Jean Airport (TFFJ)

Arrival

Time 2026-05-05 11:00
Airport Juancho E. Yrausquin Airport (TNCS)
Time Latitude Longitude Altitude Speed Heading
2026-05-05 10:34 17.90378 -62.84475 40 ft 0 kts 87°
2026-05-05 10:42 18.04177 -63.11239 40 ft 0 kts 171°
2026-05-05 10:45 17.90432 -62.84632 48 ft 0 kts 88°
2026-05-05 10:46 17.90437 -62.84452 36 ft 61 kts 88°
2026-05-05 10:46 17.90466 -62.83798 168 ft 101 kts 86°
2026-05-05 10:46 17.90895 -62.83190 413 ft 122 kts 25°
2026-05-05 10:47 17.91812 -62.83180 433 ft 150 kts 337°
2026-05-05 10:47 17.92451 -62.84034 565 ft 155 kts 281°
2026-05-05 10:47 17.92129 -62.85048 865 ft 151 kts 225°
2026-05-05 10:47 17.91194 -62.85524 1141 ft 148 kts 201°
2026-05-05 10:48 17.90293 -62.86034 1355 ft 150 kts 217°
2026-05-05 10:48 17.89530 -62.86864 1258 ft 165 kts 238°
2026-05-05 10:48 17.88920 -62.87883 1185 ft 171 kts 233°
2026-05-05 10:48 17.88164 -62.88839 1088 ft 179 kts 225°
2026-05-05 10:49 17.87394 -62.89884 1096 ft 181 kts 229°
2026-05-05 10:49 17.86641 -62.90953 1093 ft 182 kts 227°
2026-05-05 10:49 17.85922 -62.91974 1339 ft 168 kts 229°
2026-05-05 10:49 17.85232 -62.92942 1584 ft 163 kts 228°
2026-05-05 10:50 17.84590 -62.93850 2000 ft 149 kts 228°
2026-05-05 10:50 17.83985 -62.94698 2378 ft 143 kts 228°
2026-05-05 10:50 17.83391 -62.95533 2688 ft 143 kts 227°
2026-05-05 10:50 17.82796 -62.96369 3024 ft 142 kts 227°
2026-05-05 10:51 17.82217 -62.97184 3406 ft 137 kts 227°
2026-05-05 10:51 17.81650 -62.97984 3713 ft 137 kts 227°
2026-05-05 10:51 17.81140 -62.98807 4035 ft 137 kts 241°
2026-05-05 10:51 17.80773 -62.99739 4373 ft 136 kts 242°
2026-05-05 10:52 17.80387 -63.00629 4727 ft 135 kts 241°
2026-05-05 10:52 17.80003 -63.01523 5059 ft 134 kts 241°
2026-05-05 10:52 17.79614 -63.02418 5386 ft 134 kts 240°
2026-05-05 10:52 17.79231 -63.03302 5741 ft 131 kts 242°
2026-05-05 10:53 17.78851 -63.04175 6038 ft 133 kts 242°
2026-05-05 10:53 17.78475 -63.05047 6418 ft 128 kts 242°
2026-05-05 10:53 17.78103 -63.05898 6715 ft 131 kts 239°
2026-05-05 10:53 17.77715 -63.06791 6974 ft 135 kts 240°
2026-05-05 10:54 17.77306 -63.07731 7097 ft 151 kts 240°
2026-05-05 10:54 17.76856 -63.08775 7176 ft 161 kts 242°
2026-05-05 10:54 17.76394 -63.09851 7372 ft 159 kts 243°
2026-05-05 10:54 17.75957 -63.10864 7679 ft 152 kts 243°
2026-05-05 10:55 17.75495 -63.11918 7675 ft 168 kts 241°
2026-05-05 10:55 17.75000 -63.13060 7750 ft 170 kts 244°
2026-05-05 10:55 17.74520 -63.14175 7814 ft 174 kts 243°
2026-05-05 10:55 17.74002 -63.15358 7877 ft 173 kts 244°
2026-05-05 10:56 17.73521 -63.16476 8006 ft 172 kts 243°
2026-05-05 10:56 17.72978 -63.17757 6624 ft 140 kts 245°
2026-05-05 10:56 17.72435 -63.18917 5840 ft 140 kts 239°
2026-05-05 10:56 17.72366 -63.19038 5829 ft 144 kts 234°
2026-05-05 10:57 17.72260 -63.19221 5711 ft 143 kts 233°
2026-05-05 10:57 17.71801 -63.19928 4009 ft 233 kts 228°
2026-05-05 10:57 17.70692 -63.21303 2477 ft 242 kts 224°
2026-05-05 10:58 17.69792 -63.22388 2661 ft 115 kts 225°
2026-05-05 10:58 17.69311 -63.22956 2249 ft 100 kts 211°
2026-05-05 10:58 17.68773 -63.23345 1807 ft 91 kts 200°
2026-05-05 10:58 17.68209 -63.23625 1388 ft 88 kts 191°
2026-05-05 10:59 17.67598 -63.23756 1077 ft 85 kts 179°
2026-05-05 10:59 17.67024 -63.23752 874 ft 91 kts 161°
2026-05-05 10:59 17.66423 -63.23590 742 ft 87 kts 154°
2026-05-05 10:59 17.65871 -63.23405 557 ft 92 kts 159°
2026-05-05 11:00 17.65329 -63.23242 307 ft 69 kts 152°
2026-05-05 11:00 17.64944 -63.22924 241 ft 82 kts 125°
2026-05-05 11:00 17.64688 -63.22451 193 ft 73 kts 109°
2026-05-05 11:00 17.64524 -63.22026 129 ft 47 kts 107°
2026-05-05 11:01 17.64515 -63.21989 126 ft 24 kts 87°
2026-05-05 11:01 17.64495 -63.22035 127 ft 0 kts 71°
2026-05-05 11:01 17.64487 -63.22034 125 ft 3 kts 201°
2026-05-05 11:01 17.64459 -63.22043 124 ft 0 kts 198°